Regional Weather Roundup
Issued by NWS

Home | Current Version | Previous Version | Graphics & Text | Print | Product List | Glossary On
Versions: 1 2 3 4 5 6 7 8 9 10 11 12 13 14 15 16 17 18 19 20 21 22 23 24 25 26 27 28 29 30 31 32 33 34 35 36 37 38 39 40 41 42 43 44 45 46 47 48 49 50
000
ASUS43 KLMK 211502
RWRKY
KENTUCKY REGIONAL WEATHER ROUNDUP
NATIONAL WEATHER SERVICE LOUISVILLE KY
1100 AM EDT THU AUG 21 2014

NOTE "FAIR" INDICATES FEW OR NO CLOUDS BELOW 12,000 FEET
WITH NO SIGNIFICANT WEATHER AND/OR OBSTRUCTIONS TO VISIBILITY.

KYZ001>023-026-027-061>063-070>075-211600-
WESTERN AND SOUTH CENTRAL KENTUCKY

CITY           SKY/WX    TMP DP  RH WIND       PRES   REMARKS
PADUCAH        SUNNY     87  74  64 W12G23    30.07R HX  95
HENDERSON      MOSUNNY   84  75  74 W12       30.06R HX  92
OWENSBORO      PTSUNNY   83  70  64 SW9       30.09R
HOPKINSVILLE   NOT AVBL
BOWLING GREEN  MOSUNNY   83  73  72 W9        30.12R
GLASGOW        SUNNY     77  72  83 CALM      30.13R
$$

KYZ024-025-028>034-038-045-046-053-211600-
NORTH CENTRAL KENTUCKY

CITY           SKY/WX    TMP DP  RH WIND       PRES   REMARKS
LOUISVILLE/SDF CLOUDY    77  72  84 SW9       30.08R
LOUISVILLE/LOU PTSUNNY   79  72  79 SW7       30.08R
FORT KNOX      MOSUNNY   81  72  75 SW8       30.09R
$$

KYZ035>037-039>044-047>052-055>060-089>105-211600-
NORTHEAST KENTUCKY

CITY           SKY/WX    TMP DP  RH WIND       PRES   REMARKS
LEXINGTON      PTSUNNY   79  71  76 SW8       30.11S
COVINGTON      TSTM      72  69  90 S9        30.09R FOG
FRANKFORT      CLOUDY    77  71  82 SW9       30.09R
$$

KYZ054-064>069-076>088-106>120-211600-
SOUTHEAST KENTUCKY

CITY           SKY/WX    TMP DP  RH WIND       PRES   REMARKS
JACKSON        SUNNY     75  68  78 VRB3      30.15R
LONDON         MOSUNNY   80  69  69 VRB7      30.17R
SOMERSET       PTSUNNY   79  72  78 W5        30.16R
MIDDLESBORO    PTSUNNY   73  67  81 CALM      30.20R
MONTICELLO     MOSUNNY   82  74  77 SW7       30.17R
$$



USA.gov is the U.S. government's official web portal to all federal, state and local government web resources and services.